This is the latest recevied weather packets stored in our database for station/object GW1599. If no packets are shown the sender has not sent any weather packets the latest 10 day(s).
| Time | Temp. | Humidity | Pressure | Rain* | Wind** | Luminosity | Snow |
|---|---|---|---|---|---|---|---|
| 1777143993 | 20.56° C | 79% | 1010.4 hPa | 0 mm | - | - | - |
| 1777143284 | 20.56° C | 78% | 1010.8 hPa | 0 mm | - | - | - |
| 1777142900 | 20.56° C | 79% | 1010.8 hPa | 0 mm | - | - | - |
| 1777140042 | 20.56° C | 80% | 1010.4 hPa | 0 mm | - | - | - |
| 1777138610 | 20.56° C | 75% | 1010.4 hPa | 0 mm | - | - | - |
| 1777132457 | 21.67° C | 74% | 1010.8 hPa | 0 mm | - | - | - |
| 1777132131 | 21.67° C | 77% | 1010.8 hPa | 0 mm | - | - | - |
| 1777131375 | 21.11° C | 78% | 1010.8 hPa | 0 mm | - | - | - |
| 1777129214 | 20° C | 82% | 1010.4 hPa | 0 mm | - | - | - |
| 1777128501 | 20° C | 82% | 1010.4 hPa | 0 mm | - | - | - |
| 1777127450 | 19.44° C | 86% | 1010.4 hPa | 0 mm | - | - | - |
| 1777123843 | 16.11° C | 94% | 1010.4 hPa | 0 mm | - | - | - |
| 1777123476 | 15.56° C | 94% | 1010.8 hPa | 0 mm | - | - | - |
| 1777121660 | 14.44° C | 94% | 1010.4 hPa | 0 mm | - | - | - |
| 1777112681 | 13.33° C | 92% | 1009.4 hPa | 0 mm | - | - | - |
| 1777105103 | 12.78° C | 90% | 1009.1 hPa | 0 mm | - | - | - |
| 1777104380 | 13.33° C | 90% | 1009.1 hPa | 0 mm | - | - | - |
| 1777101152 | 13.33° C | 89% | 1009.1 hPa | 0 mm | - | - | - |
| 1777098291 | 13.33° C | 89% | 1009.1 hPa | 0 mm | - | - | - |
| 1777094690 | 13.89° C | 84% | 1008.8 hPa | 0 mm | - | - | - |
| 1777092876 | 14.44° C | 83% | 1009.1 hPa | 0 mm | - | - | - |
| 1777090711 | 15° C | 81% | 1008.8 hPa | 0 mm | - | - | - |
* Rain since midnight (hover to see other rain measurements)
** Current wind speed in m/s (hover to see current wind gust speed)